Location: Newark
(0.5300°S, 127.4800°E)
Time: 20:40:50
(UTC+00:00)

A-11 Canister half - Pass Details

Date: 17 September 2019
Orbit: 1514 x 1686 km, 47.2° (Epoch: 16 October)

Event Time Altitude Azimuth Distance (km) Brightness Sun altitude
Rises 21:35:02 0° 200° (SSW) 4,874 11.4 2.6°
Reaches altitude 10° 21:38:48 10° 189° (S) 3,861 11.0 3.5°
Maximum altitude 21:47:00 30° 132° (SE) 2,572 10.9 5.6°
Drops below altitude 10° 21:54:54 10° 75° (ENE) 3,739 13.2 7.6°
Sets 21:58:26 0° 65° (ENE) 4,698 13.0 8.4°
